Voltar ao catálogo

ARIANE 2 DEB

LostGTO
NORAD 33554·DEBRIS·🇫🇷 France

Lançado Jan 27, 1989 de Guiana Space Centre

Loading…

TLE

ObsoletoSource: Space-Track

Época: Jan 2, 2017, 19:05 UTC

1 33554U 89006AW  17002.79542801  .00000055  00000-0  46792-3 0  9990
2 33554   8.2826 244.5850 7123993 150.6596 282.4252  2.35502851 95585

Acompanhe ARIANE 2 DEB em tempo real com AllMySat

Download on the App Store